カタログに戻る

STARLINK-32957

運用中通信VLEO
NORAD 63124·PAYLOAD·🇺🇸 United States

打ち上げ Feb 27, 2025 から Cape Canaveral Space Force Station

Loading…

次のパス (今後24時間)

TLE

最新Source: CelesTrak SupGP

元期: Sep 15, 2026, 03:06 UTC

1 63124C 25039W   26258.12965278  .00005683  00000+0  20590-3 0  2586
2 63124  43.0018  23.0880 0001537 270.9571 221.0240 15.27566282    18

AllMySatでSTARLINK-32957をリアルタイム追跡

Download on the App Store